Overview Statistics Trail Chart Weather Telemetry Raw packets
 

This is the latest recevied weather packets stored in our database for station/object SV1JSO-13. If no packets are shown the sender has not sent any weather packets the latest 10 day(s).

<< 81 82 83 84 85 86 87 >>
Time Temp. Humidity Pressure Rain* Wind** Luminosity Snow
1788072600 28.33° C 40% 1009.9 hPa 0 mm - 357 W/m² -
1788072300 27.78° C 41% 1009.8 hPa 0 mm - 341 W/m² -
1788072000 28.33° C 40% 1009.8 hPa 0 mm - 325 W/m² -
1788071700 28.33° C 39% 1009.9 hPa 0 mm - 273 W/m² -
1788071400 27.78° C 41% 1009.8 hPa 0 mm - 313 W/m² -
1788071100 27.78° C 41% 1009.8 hPa 0 mm - 293 W/m² -
1788070800 27.22° C 41% 1009.8 hPa 0 mm - 283 W/m² -
1788070500 27.78° C 41% 1009.7 hPa 0 mm - 256 W/m² -
1788070200 27.78° C 41% 1009.7 hPa 0 mm - 260 W/m² -
1788069900 27.22° C 42% 1009.7 hPa 0 mm - 171 W/m² -
1788069600 27.22° C 42% 1009.9 hPa 0 mm - 223 W/m² -
1788069300 27.22° C 42% 1009.9 hPa 0 mm - 218 W/m² -
1788069000 27.22° C 42% 1009.7 hPa 0 mm - 192 W/m² -
1788068700 27.22° C 40% 1009.8 hPa 0 mm - 176 W/m² -
1788068400 27.78° C 40% 1009.6 hPa 0 mm - 162 W/m² -
1788068100 27.78° C 38% 1009.7 hPa 0 mm - 152 W/m² -
1788067800 27.78° C 39% 1009.6 hPa 0 mm - 139 W/m² -
1788067500 27.22° C 39% 1009.7 hPa 0 mm - 129 W/m² -
1788067200 27.22° C 41% 1009.6 hPa 0 mm - 116 W/m² -
1788066900 26.67° C 41% 1009.6 hPa 0 mm - 105 W/m² -
1788066600 26.67° C 42% 1009.6 hPa 0 mm - 96 W/m² -
1788066300 26.11° C 42% 1009.6 hPa 0 mm - 87 W/m² -
1788066000 26.11° C 42% 1009.5 hPa 0 mm - 79 W/m² -
1788065700 26.11° C 43% 1009.4 hPa 0 mm - 71 W/m² -
1788065400 26.11° C 43% 1009.4 hPa 0 mm - 62 W/m² -

* Rain latest hour (hover to see other rain measurements)
** Current wind speed in m/s (hover to see current wind gust speed)